Regional Weather Roundup
Issued by NWS

Home | Current Version | Previous Version | Graphics & Text | Print | Product List | Glossary On
Versions: 1 2 3 4 5 6 7 8 9 10 11 12 13 14 15 16 17 18 19 20 21 22 23 24 25 26 27 28 29 30 31 32 33 34 35 36 37 38 39 40 41 42 43 44 45 46 47 48 49
000
ASUS45 KSLC 191210
RWRUT

UTAH REGIONAL WEATHER ROUNDUP
NATIONAL WEATHER SERVICE SALT LAKE CITY UT
600 AM MDT FRI SEP 19 2014

UTZ001>011-023>025-191300-

NORTHERN UTAH

CITY           SKY/WX    TMP DP  RH WIND       PRES   REMARKS
HILL AFB       MOCLDY    63  53  68 NW2       30.02R
LOGAN          CLEAR     56  56 100 N3        30.03R
OGDEN          CLOUDY    61  56  83 CALM      30.00R
PROVO AIRPORT  MOCLDY    63  55  77 CALM      30.02R
SALT LAKE CITY MOCLDY    64  60  87 CALM      29.99R
VERNAL         PTCLDY    63  45  51 N9        30.04R
WENDOVER       PTCLDY    63  48  59 NW7       30.00S
HEBER CITY     MOCLDY    55  50  82 CALM      30.09R
WEST JORDAN    MOCLDY    64  55  72 W5        30.01R

$$

UTZ012>022-026-027-191300-

SOUTHERN UTAH

CITY           SKY/WX    TMP DP  RH WIND       PRES   REMARKS
BRYCE CANYON   MOCLDY    50  45  83 W3        30.19R
CEDAR CITY     MOCLDY    60  49  66 SE3       30.05R
MILFORD        CLOUDY    65  50  58 S5        30.01S
MOAB/CYNLANDS  CLEAR     60  38  43 CALM      29.94R
PRICE          CLEAR     61  39  44 N9        30.04R
ST GEORGE      PTSUNNY   73  52  46 CALM      29.89S
KANAB          CLOUDY    63  50  63 NE5       30.05R

$$

REGIONAL REPORTS     COLORADO/ARIZONA

CITY           SKY/WX    TMP DP  RH WIND       PRES   REMARKS
CRAIG, CO      PTCLDY    43  38  82 SW7       30.13R
GRAND JUNCTION CLEAR     54  42  64 SE5       30.00R
RIFLE          CLEAR     51  42  71 SE3       30.07R
MONTROSE       CLEAR     55  43  63 S7        30.08R
CORTEZ         CLEAR     48  43  82 E6        30.09R
PAGE, AZ       PTCLDY    73  52  47 CALM      29.94S
GRAND CANYON   CLOUDY    51  50  96 NE3       30.14S
KINGMAN        CLEAR     64  50  60 SE9       29.90S
FLAGSTAFF      CLEAR     54  52  93 CALM      30.16S

$$

REGIONAL REPORTS    NEVADA/IDAHO/WYOMING

CITY           SKY/WX    TMP DP  RH WIND       PRES   REMARKS
LAS VEGAS, NV  CLEAR     77  47  34 S10       29.77R
ELY            MOCLDY    48  39  71 S5        30.11R
ELKO           CLEAR     52  49  89 E5        30.06R FOG
POCATELLO, ID  CLEAR     51  47  86 SW8       30.03R
BURLEY         CLEAR     57  43  59 S3        30.02R
EVANSTON, WY   CLOUDY    51  48  89 S5        30.17S
ROCK SPRINGS   CLOUDY    53  50  89 S8        30.13F

$$



USA.gov is the U.S. government's official web portal to all federal, state and local government web resources and services.